#timestamp,LO_Frequency,Hit,StdDev 
1456639215.6,286047013.4,N
1456639235.5,286047012.6,N
1456639255.3,286047016.4,Y
1456639275.1,286047000.9,P
1456639295.9,286047004.1,N
1456639315.7,286047006.0,N
1456639335.5,286047003.7,N
1456639355.4,286047003.7,N
1456639375.2,286047002.6,N
1456639395.0,286046998.8,N
1456639395.9,286046998.8,N
1456639415.8,286047001.1,N
1456639435.6,286047001.9,N
1456639455.4,286046998.2,N
1456639475.2,286046997.7,N
1456639495.1,286046995.8,N
1456639496.0,286046995.8,N
1456639515.8,286046995.8,N
1456639535.6,286046996.4,N
1456639555.5,286046995.2,N
1456639575.3,286046994.3,N
1456639595.1,286046996.2,N
1456639615.9,286046991.4,N
1456639635.7,286046990.4,N
1456639655.5,286046990.7,N
1456639675.4,286046989.4,N
1456639695.2,286046990.9,N
1456639715.0,286046993.1,N
1456639715.9,286046993.1,N
1456639735.8,286046994.1,N
1456639755.6,286046991.7,N
1456639775.4,286046996.7,N
1456639795.2,286046998.5,N
1456639815.1,286046998.7,N
1456639816.0,286046998.7,N
1456639835.8,286046999.4,N
1456639855.6,286046998.8,N
1456639875.5,286046999.6,N
1456639895.3,286046997.7,N
1456639915.1,286046995.0,N
1456639935.9,286046994.5,N
1456639955.7,286046994.2,N
1456639975.5,286046997.6,N
1456639995.4,286046993.8,N
1456640015.2,286046994.7,N
1456640035.0,286046997.8,N
1456640035.9,286046997.8,N
1456640055.8,286046991.7,N
1456640075.6,286046994.8,N
1456640095.4,286046993.6,N
1456640115.3,286046995.3,N
1456640135.1,286046995.0,N
1456640136.0,286046995.0,N
1456640155.8,286046995.8,N
1456640175.6,286046995.4,N
1456640195.5,286046995.1,N
1456640215.3,286046997.3,N
1456640235.1,286046993.3,Y
1456640255.9,286046998.6,P
1456640275.7,286046999.5,N
1456640295.5,286046996.6,N
1456640315.4,286046997.0,N
1456640335.2,286046996.8,N
1456640355.0,286046997.9,N
1456640355.9,286046997.9,N
1456640375.8,286046995.8,Y
1456640395.6,286046999.3,P
1456640415.4,286046996.9,P
1456640435.3,286047000.5,N
1456640455.1,286047001.1,N
1456640475.8,286046997.0,N
1456640495.7,286046995.2,N
1456640515.5,286046994.1,N
1456640535.3,286046991.4,Y
1456640555.2,286046992.7,P
1456640575.9,286046992.8,N
1456640595.7,286046996.4,N
1456640615.6,286046994.3,N
1456640635.4,286046995.4,N
1456640655.2,286046994.9,N
1456640675.1,286046995.2,N
1456640676.0,286046995.2,Y
1456640695.8,286047000.4,P
1456640715.6,286047000.7,N
1456640735.5,286046999.4,N
1456640755.3,286046999.0,N
1456640775.1,286047002.5,N
1456640795.9,286047004.3,N
1456640815.7,286047002.4,N
1456640835.5,286047003.5,N
1456640855.3,286046999.9,N
1456640875.2,286047002.4,N
1456640895.0,286047003.3,N
1456640895.9,286047003.3,N
1456640915.8,286047007.6,Y
1456640935.6,286047006.0,P
1456640955.4,286047003.2,N
1456640975.2,286047006.6,P
1456640995.1,286047007.7,Y
1456640996.0,286047007.7,P
1456641015.8,286047005.9,P
1456641035.7,286047004.7,P
1456641055.5,286047008.1,Y
1456641075.3,286047003.7,P
1456641095.2,286047001.7,N
1456641115.9,286047002.0,N
1456641135.7,286046999.9,N
1456641155.5,286046999.8,N
1456641175.4,286047000.1,N
1456641195.2,286046999.9,N
1456641215.0,286046999.8,N
1456641215.9,286046999.8,N
1456641235.8,286047000.7,N
1456641255.6,286046998.1,N
1456641275.4,286046996.9,N
1456641295.3,286046998.4,N
1456641315.1,286046999.9,N
1456641316.0,286046999.9,N
1456641335.8,286047002.3,N
1456641355.7,286047001.8,N
1456641375.5,286046998.6,N
1456641395.3,286046999.4,N
1456641415.2,286047002.1,N
1456641435.9,286047000.8,N
1456641455.7,286046996.6,N
1456641475.5,286046995.1,N
1456641495.4,286046998.0,N
1456641515.2,286046995.7,N
1456641535.0,286046993.8,N
1456641535.9,286046993.8,N
1456641555.8,286046991.3,Y
1456641575.6,286046993.2,P
1456641595.4,286046992.9,N
1456641615.3,286046989.0,P
1456641635.1,286046989.7,N
1456641655.8,286046989.1,N
1456641675.7,286046991.4,N
1456641695.5,286046991.6,N
1456641715.3,286046990.6,N
1456641735.2,286046991.6,N
1456641755.9,286046988.7,Y
1456641775.7,286046994.7,P
1456641795.6,286046992.8,P
1456641815.4,286046992.6,P
1456641835.2,286046990.4,Y
1456641855.1,286047000.1,P
1456641856.0,286047000.1,N
1456641875.8,286047003.5,N
1456641895.6,286047006.0,N
1456641915.5,286047003.7,N
1456641935.3,286047004.7,N
1456641955.1,286047008.8,N
1456641975.9,286047006.7,N
1456641995.7,286047007.3,N
1456642015.5,286047009.1,N
1456642035.3,286047004.6,N
1456642055.2,286047006.6,N
1456642075.0,286047009.1,N
1456642075.9,286047009.1,N
1456642095.7,286047010.7,N
1456642115.6,286047010.5,N
1456642135.4,286047010.0,N
1456642155.2,286047009.4,N
1456642175.1,286047009.3,N
1456642176.0,286047009.3,N
1456642195.8,286047012.9,Y
1456642215.6,286047008.5,P
1456642235.5,286047009.0,P
1456642255.3,286047004.6,P
1456642275.1,286047007.6,Y
1456642295.9,286046999.4,P
1456642315.7,286047000.7,N
1456642335.5,286046999.7,N
1456642355.4,286047002.1,N
1456642375.2,286047001.7,N
1456642395.0,286047003.8,N
1456642395.9,286047003.8,N
1456642415.8,286047004.3,N
1456642435.6,286047003.5,N
1456642455.4,286047003.3,N
1456642475.3,286047003.2,N
1456642495.1,286047002.6,N
1456642496.0,286047002.6,N
1456642515.8,286047001.7,N
1456642535.6,286046999.8,N
1456642555.5,286047002.5,N
1456642575.3,286046999.8,N
1456642595.1,286047003.6,N
1456642615.9,286047002.5,N
1456642635.7,286047000.6,N
1456642655.5,286046999.6,N
1456642675.4,286047001.2,N
1456642695.2,286047001.2,N
1456642715.0,286047002.2,N
1456642715.9,286047002.2,N
1456642735.8,286047002.4,N
1456642755.6,286047000.9,N
1456642775.4,286046999.5,N
1456642795.3,286046997.5,N
